K6PKL-2 Weather Reports


Display with metric or nautical units.
time (UTC)temp
F
wind
direction
speed
MPH
gust
MPH
rain 1hr
in
rain 24hr
in
rain mn
in
humidity
%
barometer
mb
20260905165223 65 315 3.0 3.0 0.00 0.00 0.00 71 1019.4
20260905164823 65 351 3.0 4.0 0.00 0.00 0.00 71 1019.4
20260905164423 64 279 1.0 4.0 0.00 0.00 0.00 71 1019.5
20260905164022 64 346 2.0 4.0 0.00 0.00 0.00 72 1019.4
20260905163622 64 315 2.0 4.0 0.00 0.00 0.00 72 1019.4
20260905163222 64 337 3.0 5.0 0.00 0.00 0.00 72 1019.3
20260905162822 64 270 0.0 0.0 0.00 0.00 0.00 73 1019.3
20260905162422 63 315 3.0 4.0 0.00 0.00 0.00 73 1019.4
20260905162022 63 312 4.0 4.0 0.00 0.00 0.00 73 1019.5
20260905161622 63 51 1.0 3.0 0.00 0.00 0.00 73 1019.5
20260905161221 63 45 1.0 3.0 0.00 0.00 0.00 74 1019.5
20260905160821 63 0 1.0 4.0 0.00 0.00 0.00 74 1019.4
20260905160421 63 347 3.0 4.0 0.00 0.00 0.00 74 1019.4
20260905160021 62 101 1.0 3.0 0.00 0.00 0.00 74 1019.5
20260905155621 62 2 2.0 5.0 0.00 0.00 0.00 74 1019.4
20260905155220 62 0 2.0 4.0 0.00 0.00 0.00 75 1019.3
20260905154820 62 225 1.0 3.0 0.00 0.00 0.00 75 1019.4
20260905154420 62 45 1.0 4.0 0.00 0.00 0.00 75 1019.3
20260905154020 62 328 1.0 3.0 0.00 0.00 0.00 75 1019.2
20260905153620 61 4 2.0 4.0 0.00 0.00 0.00 75 1019.2
20260905153220 61 4 2.0 4.0 0.00 0.00 0.00 75 1019.3
20260905152819 61 45 2.0 4.0 0.00 0.00 0.00 75 1019.3
20260905152419 61 4 1.0 3.0 0.00 0.00 0.00 75 1019.3
20260905152019 60 45 2.0 4.0 0.00 0.00 0.00 75 1019.3
20260905151619 60 0 2.0 4.0 0.00 0.00 0.00 76 1019.2
20260905151219 60 0 3.0 3.0 0.00 0.00 0.00 75 1019.2
20260905150818 60 0 1.0 2.0 0.00 0.00 0.00 75 1019.1
20260905150418 60 45 1.0 3.0 0.00 0.00 0.00 75 1019.1
20260905145615 60 45 1.0 1.0 0.00 0.00 0.00 75 1019.0
20260905145215 60 0 0.0 2.0 0.00 0.00 0.00 75 1019.0
20260905144815 60 36 1.0 2.0 0.00 0.00 0.00 75 1019.0
20260905144415 60 45 0.0 2.0 0.00 0.00 0.00 74 1019.0
20260905144014 59 45 0.0 1.0 0.00 0.00 0.00 75 1019.1
20260905143614 59 45 1.0 2.0 0.00 0.00 0.00 75 1019.0
20260905143214 59 45 1.0 2.0 0.00 0.00 0.00 73 1019.1
20260905142411 59 346 0.0 2.0 0.00 0.00 0.00 74 1019.1
20260905142011 59 0 0.0 2.0 0.00 0.00 0.00 74 1019.0
20260905141611 60 0 0.0 1.0 0.00 0.00 0.00 72 1019.0
20260905141210 60 45 1.0 3.0 0.00 0.00 0.00 72 1019.1
20260905140810 60 47 1.0 4.0 0.00 0.00 0.00 72 1018.9
20260905140410 60 45 1.0 3.0 0.00 0.00 0.00 73 1019.0
20260905140010 60 45 2.0 3.0 0.00 0.00 0.00 73 1019.0
20260905135610 60 18 1.0 2.0 0.00 0.00 0.00 73 1019.0
20260905135210 60 45 0.0 2.0 0.00 0.00 0.00 73 1018.9
20260905134810 60 40 2.0 2.0 0.00 0.00 0.00 73 1018.9
20260905134409 60 90 0.0 2.0 0.00 0.00 0.00 73 1018.9
20260905134009 60 54 2.0 3.0 0.00 0.00 0.00 73 1018.7
20260905133209 59 45 2.0 3.0 0.00 0.00 0.00 74 1018.7
20260905132809 59 45 1.0 2.0 0.00 0.00 0.00 74 1018.8
20260905132409 59 49 1.0 2.0 0.00 0.00 0.00 74 1018.7
20260905132009 59 31 1.0 1.0 0.00 0.00 0.00 75 1018.7
20260905131610 59 36 0.0 1.0 0.00 0.00 0.00 75 1018.7
20260905131208 59 0 1.0 2.0 0.00 0.00 0.00 75 1018.5
20260905130808 59 0 1.0 3.0 0.00 0.00 0.00 75 1018.6
20260905130408 59 315 1.0 4.0 0.00 0.00 0.00 75 1018.5
20260905125608 59 0 0.0 1.0 0.00 0.00 0.00 74 1018.5
20260905125208 60 319 2.0 2.0 0.00 0.00 0.00 73 1018.6
20260905124807 60 0 1.0 3.0 0.00 0.00 0.00 73 1018.6
20260905124407 60 0 1.0 3.0 0.00 0.00 0.00 73 1018.5
20260905124007 60 0 0.0 4.0 0.00 0.00 0.00 71 1018.6
20260905123207 60 45 1.0 2.0 0.00 0.00 0.00 71 1018.5
20260905122807 60 45 0.0 1.0 0.00 0.00 0.00 70 1018.6
20260905122407 60 355 2.0 3.0 0.00 0.00 0.00 70 1018.7
20260905122006 61 42 2.0 2.0 0.00 0.00 0.00 69 1018.7
20260905121606 61 0 1.0 3.0 0.00 0.00 0.00 68 1018.7
20260905121206 61 20 1.0 2.0 0.00 0.00 0.00 67 1018.7
20260905120806 61 90 0.0 1.0 0.00 0.00 0.00 67 1018.7
20260905120406 61 90 0.0 1.0 0.00 0.00 0.00 68 1018.7
20260905120006 61 87 0.0 2.0 0.00 0.00 0.00 67 1018.8
20260905115606 61 45 1.0 2.0 0.00 0.00 0.00 67 1018.7
20260905115205 61 45 0.0 1.0 0.00 0.00 0.00 68 1018.7
20260905114805 61 0 1.0 1.0 0.00 0.00 0.00 67 1018.7
20260905114405 61 315 1.0 3.0 0.00 0.00 0.00 67 1018.6
20260905114005 61 45 2.0 3.0 0.00 0.00 0.00 68 1018.7
20260905113605 61 45 0.0 0.0 0.00 0.00 0.00 67 1018.7
20260905113205 61 45 0.0 2.0 0.00 0.00 0.00 68 1018.8
20260905112805 61 45 2.0 4.0 0.00 0.00 0.00 68 1018.6
20260905112405 61 49 1.0 2.0 0.00 0.00 0.00 68 1018.7
20260905112004 61 315 0.0 2.0 0.00 0.00 0.00 68 1018.7
20260905111604 61 0 1.0 3.0 0.00 0.00 0.00 68 1018.6
20260905111204 62 335 2.0 3.0 0.00 0.00 0.00 67 1018.7
20260905110804 62 0 0.0 2.0 0.00 0.00 0.00 67 1018.7
20260905110404 62 45 0.0 2.0 0.00 0.00 0.00 67 1018.6
20260905110004 62 22 1.0 2.0 0.00 0.00 0.00 67 1018.8
20260905105603 62 315 1.0 2.0 0.00 0.00 0.00 66 1018.7
20260905105203 62 344 1.0 2.0 0.00 0.00 0.00 66 1018.7
20260905104803 62 45 0.0 2.0 0.00 0.00 0.00 66 1018.6
20260905104403 62 45 1.0 2.0 0.00 0.00 0.00 67 1018.8
20260905104003 62 353 1.0 3.0 0.00 0.00 0.00 66 1018.8
20260905103603 62 317 1.0 2.0 0.00 0.00 0.00 66 1018.8
20260905103203 62 270 2.0 3.0 0.00 0.00 0.00 66 1018.9
20260905102802 62 326 2.0 3.0 0.00 0.00 0.00 65 1018.9
20260905102403 62 225 0.0 2.0 0.00 0.00 0.00 65 1018.9
20260905102002 63 315 0.0 2.0 0.00 0.00 0.00 65 1018.9
20260905101602 63 326 1.0 2.0 0.00 0.00 0.00 65 1018.9
20260905101202 63 276 1.0 3.0 0.00 0.00 0.00 64 1019.0
20260905100802 63 180 0.0 3.0 0.00 0.00 0.00 64 1018.9
20260905100402 63 315 3.0 3.0 0.00 0.00 0.00 64 1019.0
20260905100001 63 315 0.0 1.0 0.00 0.00 0.00 64 1019.0
20260905095601 63 24 1.0 1.0 0.00 0.00 0.00 64 1018.9
20260905095201 63 45 0.0 1.0 0.00 0.00 0.00 64 1019.0
20260905094801 63 45 0.0 2.0 0.00 0.00 0.00 64 1018.9
20260905094401 63 0 0.0 1.0 0.00 0.00 0.00 64 1019.0
20260905094001 63 0 1.0 3.0 0.00 0.00 0.00 65 1018.9
20260905093601 63 315 0.0 3.0 0.00 0.00 0.00 64 1018.9
20260905092757 63 265 1.0 3.0 0.00 0.00 0.00 65 1019.0
20260905092357 63 218 2.0 5.0 0.00 0.00 0.00 65 1018.9
20260905091957 63 270 0.0 4.0 0.00 0.00 0.00 64 1018.9
20260905091557 63 180 2.0 3.0 0.00 0.00 0.00 64 1018.9
20260905090754 63 216 2.0 3.0 0.00 0.00 0.00 64 1019.1
20260905090353 64 282 1.0 3.0 0.00 0.00 0.00 64 1019.0
20260905085953 64 261 3.0 3.0 0.00 0.00 0.00 64 1019.0
20260905085553 64 301 2.0 3.0 0.00 0.00 0.00 64 1019.0
20260905085153 64 270 1.0 2.0 0.00 0.00 0.00 65 1019.0
20260905084753 64 267 2.0 3.0 0.00 0.00 0.00 64 1019.0
20260905084353 64 292 0.0 2.0 0.00 0.00 0.00 64 1019.1
20260905083953 64 315 0.0 2.0 0.00 0.00 0.00 64 1019.1
20260905083552 64 270 2.0 2.0 0.00 0.00 0.00 64 1019.0
20260905083152 64 202 1.0 2.0 0.00 0.00 0.00 64 1019.1
20260905082752 64 225 0.0 0.0 0.00 0.00 0.00 64 1019.2
20260905082352 64 225 0.0 0.0 0.00 0.00 0.00 64 1019.3
20260905081952 64 225 0.0 0.0 0.00 0.00 0.00 64 1019.3
20260905081552 64 225 0.0 2.0 0.00 0.00 0.00 64 1019.3
20260905081152 65 225 0.0 2.0 0.00 0.00 0.00 64 1019.3
20260905080752 65 225 1.0 3.0 0.00 0.00 0.00 63 1019.2
20260905080351 65 222 1.0 2.0 0.00 0.00 0.00 63 1019.4
20260905075951 65 180 2.0 2.0 0.00 0.00 0.00 63 1019.4
20260905075551 65 270 0.0 1.0 0.00 0.00 0.00 63 1019.4
20260905075151 65 270 1.0 2.0 0.00 0.00 0.00 63 1019.4
20260905074751 65 225 0.0 2.0 0.00 0.00 0.00 63 1019.4
20260905074351 65 225 0.0 2.0 0.00 0.00 0.00 63 1019.4
20260905073950 65 270 1.0 2.0 0.00 0.00 0.00 63 1019.4
20260905073550 65 292 0.0 0.0 0.00 0.00 0.00 63 1019.3
20260905073150 65 270 1.0 2.0 0.00 0.00 0.00 63 1019.3
20260905072751 65 270 2.0 3.0 0.00 0.00 0.00 63 1019.2
20260905072350 65 216 2.0 6.0 0.00 0.00 0.00 63 1019.2
20260905071950 65 317 2.0 3.0 0.00 0.00 0.00 62 1019.2
20260905071550 65 225 3.0 3.0 0.00 0.00 0.00 62 1019.3
20260905071149 66 270 0.0 4.0 0.00 0.00 0.00 62 1019.1
20260905070749 66 315 1.0 3.0 0.00 0.00 0.00 62 1019.1
20260905070349 66 230 1.0 2.0 0.00 0.00 0.00 62 1019.0
20260905065949 66 276 1.0 3.0 0.00 0.00 0.00 61 1019.0
20260905065549 66 229 0.0 3.0 0.00 0.00 0.00 62 1019.1
20260905065149 66 225 0.0 2.0 0.00 0.00 0.00 61 1019.1
20260905064749 66 225 1.0 3.0 0.00 0.00 0.00 61 1019.1
20260905064349 66 222 1.0 3.0 0.00 0.00 0.00 61 1019.0
20260905063949 66 270 1.0 2.0 0.00 0.00 0.00 61 1019.1
20260905063549 66 218 2.0 2.0 0.00 0.00 0.00 61 1019.1
20260905063149 66 135 1.0 3.0 0.00 0.00 0.00 61 1019.2
20260905062749 66 243 1.0 3.0 0.00 0.00 0.00 61 1019.1
20260905062348 66 222 3.0 3.0 0.00 0.00 0.00 61 1019.0
20260905061948 67 270 0.0 4.0 0.00 0.00 0.00 61 1019.1
20260905061548 67 317 3.0 4.0 0.00 0.00 0.00 61 1019.1
20260905061148 67 245 2.0 5.0 0.00 0.00 0.00 61 1019.1
20260905060748 67 290 1.0 5.0 0.00 0.00 0.00 61 1019.1
20260905060348 67 327 0.0 4.0 0.00 0.00 0.00 61 1019.1
20260905055948 67 283 4.0 4.0 0.00 0.00 0.00 61 1019.1
20260905055547 67 270 1.0 6.0 0.00 0.00 0.00 60 1019.0
20260905054747 67 272 2.0 4.0 0.00 0.00 0.00 61 1019.1
20260905053947 68 245 6.0 6.0 0.00 0.00 0.00 61 1019.2
20260905053547 68 225 1.0 4.0 0.00 0.00 0.00 61 1019.2
20260905053147 68 330 2.0 4.0 0.00 0.00 0.00 61 1019.1
20260905052746 68 263 3.0 6.0 0.00 0.00 0.00 61 1019.3
20260905052347 68 297 4.0 5.0 0.00 0.00 0.00 61 1019.2
20260905051946 69 274 2.0 6.0 0.00 0.00 0.00 61 1019.2
20260905051547 69 326 4.0 6.0 0.00 0.00 0.00 60 1019.2
20260905051146 69 290 2.0 6.0 0.00 0.00 0.00 60 1019.2
20260905050746 69 319 4.0 5.0 0.00 0.00 0.00 60 1019.2
20260905050346 69 337 2.0 5.0 0.00 0.00 0.00 59 1019.1
20260905045945 69 274 1.0 6.0 0.00 0.00 0.00 59 1019.1
20260905045144 70 321 4.0 5.0 0.00 0.00 0.00 59 1019.1
20260905044746 70 283 3.0 6.0 0.00 0.00 0.00 58 1019.2
20260905044344 70 315 2.0 5.0 0.00 0.00 0.00 58 1019.2
20260905043944 70 346 4.0 5.0 0.00 0.00 0.00 58 1019.1
20260905043544 70 0 1.0 4.0 0.00 0.00 0.00 58 1019.1
20260905043144 71 315 1.0 5.0 0.00 0.00 0.00 57 1019.1
20260905042744 71 211 4.0 6.0 0.00 0.00 0.00 57 1019.0
20260905042343 71 328 4.0 6.0 0.00 0.00 0.00 56 1019.0
20260905041543 72 346 3.0 5.0 0.00 0.00 0.00 55 1018.8
20260905041143 72 330 5.0 6.0 0.00 0.00 0.00 55 1018.8
20260905040743 72 334 2.0 7.0 0.00 0.00 0.00 54 1018.8
20260905040343 72 4 2.0 6.0 0.00 0.00 0.00 54 1018.7
20260905035943 73 310 3.0 5.0 0.00 0.00 0.00 53 1018.7
20260905035542 73 308 3.0 6.0 0.00 0.00 0.00 53 1018.6
20260905035142 73 172 2.0 7.0 0.00 0.00 0.00 52 1018.6
20260905034742 73 9 2.0 6.0 0.00 0.00 0.00 51 1018.5
20260905034342 74 339 3.0 7.0 0.00 0.00 0.00 51 1018.5
20260905033942 74 45 1.0 6.0 0.00 0.00 0.00 50 1018.4
20260905033542 74 261 2.0 7.0 0.00 0.00 0.00 50 1018.4
20260905033142 75 326 6.0 8.0 0.00 0.00 0.00 49 1018.3
20260905032741 75 216 1.0 7.0 0.00 0.00 0.00 48 1018.3
20260905032341 75 324 5.0 8.0 0.00 0.00 0.00 48 1018.2
20260905031941 76 294 3.0 7.0 0.00 0.00 0.00 47 1018.1
20260905031541 76 258 4.0 5.0 0.00 0.00 0.00 47 1018.1
20260905030741 77 270 1.0 8.0 0.00 0.00 0.00 45 1017.9
20260905030341 77 309 2.0 6.0 0.00 0.00 0.00 44 1018.0
20260905025940 78 337 3.0 5.0 0.00 0.00 0.00 43 1017.9
20260905025541 78 342 3.0 6.0 0.00 0.00 0.00 42 1017.9
20260905024337 79 260 3.0 4.0 0.00 0.00 0.00 40 1017.9
20260905023937 80 272 1.0 3.0 0.00 0.00 0.00 40 1017.7
20260905023537 80 346 1.0 4.0 0.00 0.00 0.00 40 1017.7
20260905023136 80 315 0.0 4.0 0.00 0.00 0.00 39 1017.7
20260905022736 81 315 2.0 4.0 0.00 0.00 0.00 39 1017.7
20260905022336 81 324 4.0 6.0 0.00 0.00 0.00 39 1017.7
20260905021936 81 0 4.0 5.0 0.00 0.00 0.00 39 1017.7
20260905021536 82 15 3.0 3.0 0.00 0.00 0.00 39 1017.7
20260905021136 82 353 1.0 3.0 0.00 0.00 0.00 39 1017.6
20260905020337 83 315 3.0 6.0 0.00 0.00 0.00 39 1017.6
20260905015935 83 348 3.0 4.0 0.00 0.00 0.00 39 1017.5
20260905015535 84 0 2.0 4.0 0.00 0.00 0.00 38 1017.5
20260905015135 84 0 2.0 6.0 0.00 0.00 0.00 38 1017.5
20260905014736 85 2 4.0 4.0 0.00 0.00 0.00 37 1017.4
20260905014335 85 315 0.0 5.0 0.00 0.00 0.00 38 1017.4
20260905013936 85 355 3.0 5.0 0.00 0.00 0.00 38 1017.4
20260905013535 85 357 2.0 7.0 0.00 0.00 0.00 39 1017.5
20260905013134 84 330 4.0 5.0 0.00 0.00 0.00 39 1017.4
20260905012734 84 324 4.0 6.0 0.00 0.00 0.00 40 1017.4
20260905012334 83 9 6.0 6.0 0.00 0.00 0.00 40 1017.5
20260905011934 83 40 0.0 3.0 0.00 0.00 0.00 40 1017.4
20260905011535 83 236 3.0 4.0 0.00 0.00 0.00 40 1017.5
20260905011134 83 272 1.0 4.0 0.00 0.00 0.00 41 1017.5
20260905005534 83 278 3.0 6.0 0.00 0.00 0.00 41 1017.4
20260905004733 82 225 2.0 5.0 0.00 0.00 0.00 41 1017.4
20260905003933 82 101 2.0 5.0 0.00 0.00 0.00 41 1017.4
20260905003532 82 328 1.0 6.0 0.00 0.00 0.00 41 1017.4
20260905003132 82 45 3.0 7.0 0.00 0.00 0.00 41 1017.4
20260905002732 82 18 4.0 5.0 0.00 0.00 0.00 41 1017.4
20260905002332 82 22 1.0 5.0 0.00 0.00 0.00 40 1017.4
20260905001932 82 321 3.0 5.0 0.00 0.00 0.00 41 1017.4
20260905001532 82 330 5.0 7.0 0.00 0.00 0.00 41 1017.4
20260905000333 82 33 0.0 4.0 0.00 0.00 0.00 40 1017.3
20260904235931 82 218 4.0 6.0 0.00 0.00 0.00 39 1017.4
20260904235531 82 220 4.0 4.0 0.00 0.00 0.00 40 1017.4
20260904235131 82 294 4.0 6.0 0.00 0.00 0.00 41 1017.4
20260904234731 82 319 3.0 6.0 0.00 0.00 0.00 41 1017.4
20260904233930 81 0 3.0 4.0 0.00 0.00 0.00 41 1017.4
20260904233530 81 218 3.0 7.0 0.00 0.00 0.00 40 1017.5
20260904233130 81 220 7.0 7.0 0.00 0.00 0.00 40 1017.4
20260904232330 82 337 8.0 8.0 0.00 0.00 0.00 40 1017.4
20260904231930 82 231 3.0 6.0 0.00 0.00 0.00 40 1017.5
20260904231530 82 330 4.0 8.0 0.00 0.00 0.00 41 1017.5
20260904231129 81 2 6.0 6.0 0.00 0.00 0.00 41 1017.5
20260904230729 81 270 2.0 5.0 0.00 0.00 0.00 41 1017.5
20260904230329 81 238 2.0 5.0 0.00 0.00 0.00 41 1017.6
20260904225929 81 315 2.0 7.0 0.00 0.00 0.00 40 1017.6
20260904225529 81 218 6.0 6.0 0.00 0.00 0.00 40 1017.7
20260904225129 81 51 1.0 5.0 0.00 0.00 0.00 41 1017.5
20260904224729 81 123 2.0 6.0 0.00 0.00 0.00 41 1017.6
20260904224328 81 315 6.0 6.0 0.00 0.00 0.00 41 1017.8
20260904223529 81 310 2.0 6.0 0.00 0.00 0.00 41 1017.9
20260904223128 80 240 7.0 7.0 0.00 0.00 0.00 43 1017.9
20260904222728 80 180 0.0 8.0 0.00 0.00 0.00 44 1017.9
20260904222328 80 319 7.0 8.0 0.00 0.00 0.00 44 1018.0
20260904221928 80 9 2.0 2.0 0.00 0.00 0.00 46 1018.0
20260904220727 79 61 0.0 3.0 0.00 0.00 0.00 47 1018.1
20260904220327 79 180 0.0 4.0 0.00 0.00 0.00 47 1018.1
20260904215927 79 243 4.0 7.0 0.00 0.00 0.00 46 1018.1
20260904215527 79 225 6.0 6.0 0.00 0.00 0.00 47 1018.2
20260904215127 79 97 3.0 4.0 0.00 0.00 0.00 49 1018.2
20260904214727 78 225 1.0 5.0 0.00 0.00 0.00 49 1018.1
20260904214326 78 135 3.0 3.0 0.00 0.00 0.00 49 1018.0
20260904213927 78 315 1.0 5.0 0.00 0.00 0.00 48 1018.1
20260904213526 78 249 1.0 7.0 0.00 0.00 0.00 47 1018.1
20260904212726 77 225 3.0 7.0 0.00 0.00 0.00 48 1018.1
20260904211525 77 209 2.0 8.0 0.00 0.00 0.00 50 1018.2
20260904210725 76 229 4.0 4.0 0.00 0.00 0.00 52 1018.2
20260904210325 76 63 0.0 3.0 0.00 0.00 0.00 51 1018.2
20260904205925 76 87 1.0 5.0 0.00 0.00 0.00 51 1018.2
20260904205525 76 270 1.0 8.0 0.00 0.00 0.00 51 1018.2
20260904204724 75 0 2.0 4.0 0.00 0.00 0.00 51 1018.3
20260904204324 75 357 3.0 4.0 0.00 0.00 0.00 51 1018.2
20260904203924 75 67 3.0 5.0 0.00 0.00 0.00 52 1018.3
20260904203524 75 0 2.0 5.0 0.00 0.00 0.00 53 1018.4
20260904203124 75 216 5.0 6.0 0.00 0.00 0.00 53 1018.5
20260904202724 75 215 4.0 7.0 0.00 0.00 0.00 53 1018.5
20260904202323 74 222 3.0 4.0 0.00 0.00 0.00 54 1018.5
20260904201523 74 213 1.0 9.0 0.00 0.00 0.00 55 1018.4
20260904201123 74 225 0.0 3.0 0.00 0.00 0.00 56 1018.4
20260904200723 74 331 3.0 9.0 0.00 0.00 0.00 55 1018.4
20260904200323 74 45 2.0 6.0 0.00 0.00 0.00 55 1018.4
20260904195923 74 348 4.0 5.0 0.00 0.00 0.00 55 1018.5
20260904195522 73 220 4.0 7.0 0.00 0.00 0.00 56 1018.6
20260904195122 73 353 9.0 10.0 0.00 0.00 0.00 55 1018.4
20260904194722 73 218 6.0 7.0 0.00 0.00 0.00 56 1018.5
20260904193922 73 225 3.0 6.0 0.00 0.00 0.00 57 1018.5
20260904193522 72 211 5.0 7.0 0.00 0.00 0.00 55 1018.6
20260904193122 72 290 3.0 3.0 0.00 0.00 0.00 58 1018.5
20260904192721 72 90 0.0 5.0 0.00 0.00 0.00 58 1018.6
20260904192321 72 31 2.0 6.0 0.00 0.00 0.00 58 1018.7
20260904191921 72 49 3.0 6.0 0.00 0.00 0.00 59 1018.7
20260904191521 72 213 3.0 6.0 0.00 0.00 0.00 58 1018.8
20260904191121 72 229 4.0 7.0 0.00 0.00 0.00 58 1018.8
20260904190721 71 6 3.0 3.0 0.00 0.00 0.00 60 1018.9
20260904190321 71 229 2.0 4.0 0.00 0.00 0.00 59 1018.8
20260904185921 71 339 3.0 5.0 0.00 0.00 0.00 60 1019.0
20260904185521 71 227 3.0 6.0 0.00 0.00 0.00 60 1019.0
20260904184720 71 200 3.0 4.0 0.00 0.00 0.00 62 1019.0
20260904184320 70 213 4.0 4.0 0.00 0.00 0.00 62 1019.0
20260904183520 70 2 4.0 6.0 0.00 0.00 0.00 63 1019.0
20260904183120 70 317 3.0 3.0 0.00 0.00 0.00 62 1019.1
20260904182719 70 247 2.0 6.0 0.00 0.00 0.00 63 1019.1
20260904182319 70 12 1.0 3.0 0.00 0.00 0.00 63 1019.1
20260904181919 69 11 1.0 5.0 0.00 0.00 0.00 64 1019.1
20260904181520 69 40 1.0 5.0 0.00 0.00 0.00 62 1019.0
20260904181119 69 54 3.0 5.0 0.00 0.00 0.00 63 1019.0
20260904180719 69 238 5.0 6.0 0.00 0.00 0.00 63 1019.0
20260904180319 69 317 3.0 4.0 0.00 0.00 0.00 65 1019.0
20260904175918 69 315 3.0 7.0 0.00 0.00 0.00 65 1019.1
20260904175518 69 225 2.0 6.0 0.00 0.00 0.00 65 1019.0
20260904175118 68 195 1.0 3.0 0.00 0.00 0.00 65 1019.0
20260904174718 68 330 2.0 5.0 0.00 0.00 0.00 67 1019.0
20260904174319 68 90 3.0 3.0 0.00 0.00 0.00 67 1019.1
20260904173918 68 4 5.0 5.0 0.00 0.00 0.00 68 1019.1
20260904173518 68 351 4.0 6.0 0.00 0.00 0.00 68 1019.1
20260904173117 67 0 3.0 3.0 0.00 0.00 0.00 68 1018.9
20260904172717 67 234 2.0 6.0 0.00 0.00 0.00 69 1019.0
20260904172318 67 315 0.0 4.0 0.00 0.00 0.00 70 1019.0
20260904171917 67 202 3.0 4.0 0.00 0.00 0.00 70 1019.0
20260904171517 67 135 0.0 3.0 0.00 0.00 0.00 71 1018.9
20260904171117 67 315 3.0 4.0 0.00 0.00 0.00 71 1019.1
20260904170717 67 18 3.0 4.0 0.00 0.00 0.00 70 1019.0
20260904170316 67 20 4.0 5.0 0.00 0.00 0.00 71 1019.0
20260904165916 66 67 2.0 4.0 0.00 0.00 0.00 72 1019.0
20260904165516 66 299 2.0 6.0 0.00 0.00 0.00 72 1019.0